IZ1VWE-3 Weather Reports


time (UTC)temp
C
wind
direction
speed
KPH
gust
KPH
rain 1hr
cm
rain 24hr
cm
rain mn
cm
humidity
%
barometer
mb
20260507121108 21 0.0 0.0 0.00 0.00 0.00 48 1010.9
20260507115107 21 0.0 0.0 0.00 0.00 0.00 48 1011.1
20260507113107 23 0.0 0.0 0.00 0.00 0.00 44 1011.4
20260507111107 23 0.0 0.0 0.00 0.00 0.00 43 1011.4
20260507105106 22 0.0 0.0 0.00 0.00 0.00 47 1011.1
20260507103106 22 0.0 0.0 0.00 0.00 0.00 47 1011.2
20260507101106 18 0.0 0.0 0.00 0.00 0.00 58 1011.3
20260507095105 22 0.0 0.0 0.00 0.00 0.00 46 1011.3
20260507093105 25 0.0 0.0 0.00 0.00 0.00 42 1011.2
20260507091105 24 0.0 0.0 0.00 0.00 0.00 42 1011.1
20260507085104 24 0.0 0.0 0.00 0.00 0.00 42 1011.0
20260507083104 21 0.0 0.0 0.00 0.00 0.00 48 1010.6
20260507081104 18 0.0 0.0 0.00 0.00 0.00 53 1010.5
20260507075104 18 0.0 0.0 0.00 0.00 0.00 52 1010.4
20260507073103 20 0.0 0.0 0.00 0.00 0.00 48 1010.2
20260507071103 21 0.0 0.0 0.00 0.00 0.00 46 1010.3
20260507065102 21 0.0 0.0 0.00 0.00 0.00 45 1010.0
20260507063102 20 0.0 0.0 0.00 0.00 0.00 49 1010.0
20260507061102 18 0.0 0.0 0.00 0.00 0.00 50 1009.9
20260507055102 17 0.0 0.0 0.00 0.00 0.00 54 1009.7
20260507053101 17 0.0 0.0 0.00 0.00 0.00 55 1009.8
20260507051101 16 0.0 0.0 0.00 0.00 0.00 58 1009.6
20260507045101 16 0.0 0.0 0.00 0.00 0.00 61 1009.3
20260507043100 15 0.0 0.0 0.00 0.00 0.00 63 1009.2
20260507041100 16 0.0 0.0 0.00 0.00 0.00 60 1009.0
20260507035100 16 0.0 0.0 0.00 0.00 0.00 61 1009.0
20260507033059 16 0.0 0.0 0.00 0.00 0.00 60 1009.1
20260507031059 16 0.0 0.0 0.00 0.00 0.00 60 1009.0
20260507025059 16 0.0 0.0 0.00 0.00 0.00 61 1008.9
20260507023102 16 0.0 0.0 0.00 0.00 0.00 60 1009.0
20260507021058 16 0.0 0.0 0.00 0.00 0.00 60 1008.9
20260507015058 16 0.0 0.0 0.00 0.00 0.00 59 1009.0
20260507013058 16 0.0 0.0 0.00 0.00 0.00 59 1008.9
20260507011057 16 0.0 0.0 0.00 0.00 0.00 59 1009.0
20260507005057 16 0.0 0.0 0.00 0.00 0.00 61 1009.1
20260507003056 15 0.0 0.0 0.00 0.00 0.00 61 1008.9
20260507001056 15 0.0 0.0 0.00 0.00 0.00 62 1009.0
20260506235056 16 0.0 0.0 0.00 0.00 0.00 60 1009.0
20260506233056 16 0.0 0.0 0.00 0.00 0.00 60 1009.1
20260506231055 16 0.0 0.0 0.00 0.00 0.00 57 1009.1
20260506225055 16 0.0 0.0 0.00 0.00 0.00 56 1009.1
20260506223055 16 0.0 0.0 0.00 0.00 0.00 57 1009.1
20260506221054 17 0.0 0.0 0.00 0.00 0.00 57 1009.1
20260506215054 16 0.0 0.0 0.00 0.00 0.00 58 1009.2
20260506213054 15 0.0 0.0 0.00 0.00 0.00 59 1009.1
20260506211053 16 0.0 0.0 0.00 0.00 0.00 58 1009.1
20260506205053 16 0.0 0.0 0.00 0.00 0.00 58 1009.1
20260506203053 16 0.0 0.0 0.00 0.00 0.00 59 1008.8
20260506201052 16 0.0 0.0 0.00 0.00 0.00 58 1008.8
20260506195052 16 0.0 0.0 0.00 0.00 0.00 58 1008.5
20260506193052 16 0.0 0.0 0.00 0.00 0.00 58 1008.3
20260506191051 16 0.0 0.0 0.00 0.00 0.00 59 1008.1
20260506185051 17 0.0 0.0 0.00 0.00 0.00 59 1007.7
20260506183051 16 0.0 0.0 0.00 0.00 0.00 59 1007.5
20260506181050 17 0.0 0.0 0.00 0.00 0.00 60 1007.3
20260506175050 17 0.0 0.0 0.00 0.00 0.00 60 1007.0
20260506173050 17 0.0 0.0 0.00 0.00 0.00 59 1006.9
20260506171050 16 0.0 0.0 0.00 0.00 0.00 60 1006.9
20260506165049 18 0.0 0.0 0.00 0.00 0.00 55 1006.7
20260506163049 18 0.0 0.0 0.00 0.00 0.00 53 1006.9
20260506161049 19 0.0 0.0 0.00 0.00 0.00 53 1006.9
20260506155048 18 0.0 0.0 0.00 0.00 0.00 57 1006.7
20260506153048 20 0.0 0.0 0.00 0.00 0.00 51 1006.8
20260506151048 21 0.0 0.0 0.00 0.00 0.00 51 1006.7
20260506145047 19 0.0 0.0 0.00 0.00 0.00 55 1006.7
20260506143047 20 0.0 0.0 0.00 0.00 0.00 53 1006.6
20260506141047 20 0.0 0.0 0.00 0.00 0.00 50 1006.7
20260506135046 21 0.0 0.0 0.00 0.00 0.00 50 1006.9
20260506133046 21 0.0 0.0 0.00 0.00 0.00 47 1006.9
20260506131046 21 0.0 0.0 0.00 0.00 0.00 51 1006.9
20260506125045 22 0.0 0.0 0.00 0.00 0.00 49 1006.9